Starlink 2143

operational
NORAD ID: 47733 Int'l Des: 2021-017 Owner: SPXS Country: US Constellation: starlink
LEOCIRCULARSTARLINK_TYPE

Über Starlink 2143

Beschreibung wird geladen...

Live-Position

3D-Globus wird geladen...

Nächste Überflüge

Höhenverlauf

Altitude vs Time

uPlot chart will show altitude changes over time

Zweizeiliger Elementsatz

1 47733U 21017M 25257.37191204 .00003474 00000-0 25193-3 0 9994
2 47733 53.0541 293.1389 0001011 71.6216 288.4883 15.06411221251063
Epoch: 14. Sept. 2025 • Age: 28 hours

Aktueller Status

Höhe 566.0 km
Geschwindigkeit 7.58 km/s
Subsatellitenpunkt -52.33°S, 18.99°E
Startdatum 4. März 2021
Alter 4.5 years
Typ internet

Technische Details

Klassifizierung Payload
Masse 260.00 kg
Trockenmasse 248.00 kg
Gesamtmasse 260.00 kg
Länge 0.20 m
Durchmesser 2.80 m
Spannweite 9.00 m
Form Box + pan
Hersteller SPXS
Bus-Typ Starlink
Phasenstatus In Orbit
Besitzer/Staat SPXS/US

Große Konstellationen

Loading constellations...